STARLINK-34858, 65023

Orbit data source: Space-Track

STARLINK-34858, 65023 is a payload satellite owned by SpaceX/Seattle (US) in LEO that was launched on Wed, 30 Jul 2025 UTC via an FALCON 9 launch vehicle from the Air Force Eastern Test Range (AFETR). Payload-class satellites include a variety of spacecraft equipped with specific instruments for various scientific and technological missions. These include communications satellites like Starlink; space stations such as the ISS; scientific satellites like the Hubble; Earth observation satellites from companies like Planet Labs, Umbra, and HawkEye 360; GPS; miniature CubeSats for education and research; and military/defense satellites.

Loading next visibility...
Identifier
65023, 2025-161J
Orbit
LEO
Country
Flag of USUS
Related business
Manufacturer
SpaceX/Seattle
Mission
Operational spacecraft
Bus & Motor
STARLINK V2MO, Unknown motor
Mass
575 kg wet, ~530 kg dry
Launch date (UTC)
2025-07-30 (1 month ago)
Launch vehicle
FALCON 9
Launch site
Air Force Eastern Test Range (AFETR)
Object type
Payload
Rocket body
Debris
Shape & HBR
Unknown
Radar Cross Section
Large (>1 m²)

Expand to show TLE details & history
Last TLE update: 19 hours ago

TLE from 19 hours ago
0 STARLINK-34858
1 65023U 25161J   25241.25002315 -.02369542  00000-0 -62380-1 0  9996
2 65023  53.1593 110.4539 0000666 125.0238 207.3092 15.41573198  5873
Epoch: 2025-08-29T06:00Z
TLE epoch observation values (Epoch: 2025-08-29T06:00:02Z)
Latitude
-22.0069°
Longitude
25.21915°
Altitude
448.096 km
Speed
7.643 km/s
True Right ascension
06h 11m 42s
True Declination
-21° 52' 56"
Sunlit
Object was in daylight at epoch
Visualization orbit readout
Latitude
Unknown
Longitude
Unknown
Altitude
Unknown
Speed
Unknown
Apparent Right ascension
Unknown
Apparent Declination
Unknown
Sunlit
N/A
Visualization observer readout
Local Sidereal Time
16:53:34
Azimuth
Unknown
Elevation
Unknown
Doppler factor
Unknown
Orbital elements
Apogee altitude
442.178 km
Perigee altitude
441.269 km
Semi-major axis
6,819.86 km
Eccentricity
0.00007
Inclination
53.1593°
RAAN
110.4539°
Arg. of periapsis
125.0238°
True anomaly
207.3057°
Mean anomaly
207.3092°
Eccentric anomaly
207.30745°
Mean motion
3.85372 °/min
Orbital period
93.42 mins
BSTAR
-0.06238
Loading maneuver chart data...
Computing Atmospheric mass density...
Loading historical data...
Loading historical data...
Loading historical data...
Loading historical data...
Loading historical data...
Loading historical data...
Loading historical data...

Documentation

Showing up to 5 results
|